GEFSGL_500_meanwind_246.txt.gz
Wind_Speed
7 8 8 9 9 9 10 10 11 11 12 12 13 14 14 14 13 14 14 14 14 14 15 16 16 17 17 18 19 19 20 20 20 21 22 22 21 23 24 24 24 23 24
9 9 10 11 11 11 11 12 12 12 13 14 15 15 14 14 15 15 16 16 16 16 17 17 17 18 18 19 20 20 21 20 21 21 21 21 22 22 24 24 24 24 24
10 10 10 11 11 12 12 13 13 14 14 14 15 16 16 16 16 17 17 17 17 17 18 18 18 19 20 21 21 22 22 22 21 21 21 22 22 22 23 23 23 24 24
12 12 12 12 12 13 14 15 15 15 16 16 17 17 17 18 18 18 18 18 18 19 19 19 20 20 21 21 22 22 23 23 23 22 21 22 22 22 22 22 22 23 24
15 15 14 14 14 15 16 16 17 17 18 18 18 18 18 19 19 19 20 20 20 20 20 20 21 21 22 23 24 24 24 25 24 24 24 23 23 23 22 22 23 23 23
18 18 18 17 17 17 17 18 18 19 20 20 19 19 20 21 21 22 22 22 21 21 22 22 23 23 24 24 25 25 25 25 25 25 25 25 25 23 23 24 24 24 24
19 19 18 18 18 18 18 19 20 21 21 21 21 21 21 21 22 22 23 23 23 24 24 24 25 25 25 26 25 25 25 25 25 25 26 26 25 25 24 25 25 25 25
21 21 20 20 20 20 20 21 22 22 23 22 23 22 22 22 22 23 24 25 25 25 26 26 26 26 26 26 25 25 25 25 26 26 26 25 25 26 25 25 26 26 26
23 23 22 22 22 22 22 23 24 25 25 25 26 25 25 24 25 25 26 26 26 27 27 27 27 27 28 27 26 26 26 27 27 27 27 27 27 27 27 26 26 26 26
25 25 25 24 24 25 26 26 26 27 27 27 27 27 26 26 27 28 28 28 28 28 29 29 29 29 29 28 28 27 27 28 28 28 28 28 28 27 27 27 27 27 27
26 26 27 26 27 27 27 26 27 28 29 28 28 28 28 28 29 29 29 30 30 30 30 31 31 31 31 31 30 30 29 29 29 29 29 29 28 28 27 27 27 27 27
27 27 28 28 28 28 29 29 29 30 30 29 29 29 29 29 30 30 31 31 31 31 32 32 33 32 32 32 32 31 31 32 31 30 30 29 29 28 28 28 28 28 28
28 28 29 29 29 30 30 30 30 30 31 31 31 31 31 31 31 31 32 32 32 32 32 33 33 33 32 32 33 33 33 32 32 31 30 29 29 29 29 29 29 29 29
29 29 30 30 30 31 31 31 31 31 32 31 31 31 31 31 32 32 32 33 32 32 32 32 32 33 32 33 33 33 33 33 32 32 31 30 30 30 30 30 29 29 29
30 30 31 31 31 31 31 31 32 32 32 31 31 31 31 32 33 33 32 32 32 32 33 33 33 33 33 32 32 32 32 32 32 31 31 31 31 31 31 30 30 30 30
32 32 32 31 31 32 32 33 33 33 33 33 32 32 32 32 33 33 34 34 33 33 33 33 33 33 33 33 33 33 33 32 32 32 31 31 30 30 30 31 30 30 30
33 33 33 33 33 33 34 33 34 33 33 33 33 33 33 33 33 34 34 34 33 33 33 33 33 33 33 33 33 33 33 32 32 32 32 31 31 31 30 30 30 30 30
33 33 34 34 34 34 33 33 34 34 34 33 34 34 34 34 34 33 33 34 34 33 33 33 33 33 33 32 32 33 32 32 31 31 31 31 30 30 29 30 30 30 30
34 34 34 34 34 34 34 34 34 34 34 34 35 35 34 34 33 33 33 34 33 33 33 33 33 32 32 32 32 32 32 31 31 30 29 30 30 30 30 30 30 30 30
35 35 35 34 34 34 34 34 35 35 34 34 35 34 34 34 34 33 33 33 33 33 33 33 33 33 32 32 32 32 32 32 31 30 30 30 29 30 30 29 29 30 29
34 34 34 34 34 34 33 34 34 34 34 34 34 33 33 34 33 33 34 33 33 33 34 34 34 34 33 33 33 33 33 32 32 31 31 30 30 30 30 30 30 30 30
33 34 33 33 33 33 33 33 34 34 34 34 34 33 34 34 33 33 33 33 33 33 33 33 34 34 34 34 33 34 33 32 32 33 32 32 32 31 31 31 30 30 31
30 31 31 31 31 31 32 32 33 33 34 34 34 34 34 33 33 33 34 34 34 34 34 34 34 35 35 34 34 33 32 32 32 32 32 32 31 31 31 31 31 31 31
28 29 29 29 30 30 31 31 32 32 33 34 34 33 33 34 34 35 35 35 35 35 35 36 35 35 35 34 33 33 32 33 33 32 32 32 32 31 31 31 32 32 32
26 27 27 28 28 29 30 31 32 33 33 33 33 33 33 33 34 35 35 35 36 36 36 36 35 35 34 33 33 34 34 33 33 33 33 33 33 33 32 32 32 32 32
24 25 26 27 28 29 30 31 32 33 33 33 33 32 32 33 34 34 34 34 34 34 34 34 34 33 33 33 33 34 34 34 33 34 34 33 33 34 34 34 33 32 31

GEFSGL_500_meanwind_252.txt.gz
Wind_Speed
12 12 12 11 11 11 12 12 13 13 13 14 14 14 14 14 14 15 16 16 16 16 16 17 17 17 17 18 18 19 19 20 20 21 22 22 22 22 22 22 23 23 23
13 13 12 12 12 13 13 13 14 14 14 15 16 16 16 16 17 17 17 17 17 18 18 18 18 18 18 19 20 21 21 22 22 22 23 23 22 22 23 23 24 24 24
14 14 14 14 14 14 15 15 15 15 16 17 17 18 18 18 18 19 19 18 18 18 19 19 19 19 20 20 21 21 22 22 23 23 24 23 23 23 23 23 23 24 24
15 15 15 16 16 17 17 17 17 18 18 19 19 19 19 19 20 19 19 19 19 20 20 20 20 20 20 21 21 22 23 23 24 24 23 23 23 23 23 23 23 23 24
16 16 15 16 17 18 19 19 19 20 20 20 21 21 21 21 21 21 21 21 21 21 21 21 21 22 22 23 23 23 24 24 24 25 24 24 23 24 24 24 24 24 24
17 18 18 18 19 19 20 21 21 22 22 22 23 23 23 23 22 22 23 23 23 23 23 23 24 24 24 24 24 24 24 24 24 25 25 24 24 24 25 25 24 25 25
20 19 20 21 22 22 21 22 23 23 24 24 24 24 24 24 24 24 24 25 24 24 25 25 25 25 25 25 25 25 25 24 24 24 24 24 25 25 25 25 25 26 26
22 21 21 22 22 23 23 24 23 23 24 25 25 25 25 25 26 25 26 26 26 26 26 25 26 26 26 27 27 27 26 25 25 25 25 25 26 26 26 26 26 26 26
23 23 22 23 23 24 24 24 25 25 25 26 27 27 27 27 27 27 28 28 27 28 27 27 27 28 28 28 28 28 27 27 27 27 27 27 27 27 27 27 27 27 27
25 26 25 25 25 25 25 26 26 26 26 27 28 29 29 28 28 28 28 29 28 28 28 28 29 30 30 30 30 29 28 28 28 28 28 28 28 28 28 29 29 29 28
28 28 27 27 27 27 27 27 27 28 28 29 29 29 29 29 29 29 29 30 30 30 30 29 30 30 30 31 31 30 29 29 29 29 28 28 28 28 28 29 30 30 30
30 29 29 29 29 28 28 28 29 29 29 29 29 29 29 29 29 29 30 30 30 30 30 31 31 31 32 31 30 30 30 30 30 30 30 30 30 30 30 30 30 30 30
31 31 30 30 30 30 30 30 30 30 30 30 29 29 29 29 30 30 31 31 31 31 32 32 32 32 32 32 30 30 30 31 32 32 31 31 31 31 31 30 30 30 30
33 33 32 31 32 32 32 31 31 30 29 29 29 30 30 30 30 31 31 32 32 32 32 33 33 33 32 31 31 30 30 31 31 32 31 31 31 31 31 31 30 29 29
33 33 33 33 33 33 32 32 31 31 31 31 31 31 31 31 32 33 33 33 33 33 33 32 32 32 32 31 31 31 31 31 32 31 31 31 31 31 30 30 30 30 30
33 33 33 33 34 34 34 33 33 32 32 32 33 33 33 33 33 34 34 34 34 34 33 32 32 32 32 32 32 32 32 32 32 31 31 31 31 31 30 30 30 30 30
34 34 33 33 34 34 34 34 34 34 34 34 34 34 34 34 34 34 34 35 34 33 33 33 33 33 33 33 33 33 33 33 32 32 31 31 31 31 31 30 30 31 31
33 33 34 34 34 34 34 35 34 34 35 34 34 35 35 35 34 35 35 35 35 35 35 34 34 34 34 34 34 33 33 33 33 32 31 31 31 30 30 30 30 31 31
34 34 34 34 35 35 35 35 35 35 35 35 35 35 35 34 34 35 35 35 35 35 35 34 34 34 34 34 34 34 33 33 32 32 31 31 31 31 31 31 32 31 31
35 35 35 35 36 36 36 36 36 36 36 37 36 36 36 35 35 36 36 36 36 35 35 34 34 35 35 35 35 34 33 33 33 32 32 32 32 32 32 32 33 32 31
35 35 35 36 36 35 36 36 36 36 37 37 36 36 36 36 36 35 35 36 35 35 34 34 34 34 34 34 34 34 34 34 33 33 33 33 33 33 33 33 32 32 32
34 34 35 35 35 35 35 35 36 36 35 35 35 35 35 36 36 35 36 35 35 35 34 34 34 34 34 34 34 34 34 34 34 34 34 34 33 33 32 33 33 32 32
33 33 33 33 33 33 33 34 34 34 34 34 35 35 35 35 36 36 36 36 35 35 35 35 35 35 35 35 35 34 34 34 35 34 34 34 33 33 33 32 32 33 32
30 29 30 30 31 32 32 32 33 34 34 35 35 35 35 35 35 36 36 36 36 36 36 36 36 36 35 35 35 35 35 35 34 34 34 34 33 33 32 31 31 32 32
28 28 28 29 30 31 32 32 33 33 33 33 34 34 34 35 35 35 36 36 37 36 36 37 37 36 36 36 36 36 36 36 35 35 34 33 33 33 33 32 32 32 32
26 26 26 28 29 30 30 30 29 30 30 31 32 32 33 33 33 33 33 34 35 36 36 36 36 36 36 36 36 36 36 36 35 35 34 33 33 33 33 33 32 32 33

GEFSGL_500_meanwind_258.txt.gz
Wind_Speed
12 13 13 13 13 13 14 15 16 16 16 16 16 16 16 16 17 17 18 18 18 17 18 18 18 18 18 19 19 20 20 21 21 21 22 22 21 21 20 20 20 20 20
13 13 14 14 15 15 15 16 17 17 17 17 17 18 18 18 18 19 19 20 20 19 19 19 19 19 20 20 21 22 22 22 22 21 22 22 22 22 21 21 21 20 20
15 15 15 15 15 16 16 18 18 18 18 19 19 19 19 19 19 20 20 20 20 21 20 20 20 20 20 21 22 22 22 22 22 22 22 22 22 22 21 21 21 20 20
16 16 16 16 17 18 18 18 18 18 19 20 20 20 20 20 20 20 21 21 21 21 21 21 21 22 22 22 22 23 23 23 23 23 23 22 22 22 21 21 21 21 22
17 17 17 18 18 19 19 19 19 19 20 21 21 21 21 21 21 22 22 22 22 22 22 23 23 23 24 24 24 24 23 23 23 24 23 23 23 22 22 22 22 22 22
19 19 19 19 19 20 20 21 21 21 21 22 22 22 22 22 22 22 22 23 23 24 24 24 24 24 25 25 25 25 25 25 24 25 25 25 25 24 23 23 23 23 23
21 21 21 20 21 21 20 21 22 22 23 23 23 23 23 24 23 23 23 24 25 25 25 25 26 26 26 26 26 26 26 26 26 26 27 27 26 25 25 25 25 25 25
23 23 23 23 22 22 21 22 23 24 25 25 24 24 24 24 24 25 25 25 26 26 26 26 27 27 27 27 27 27 27 27 27 27 28 28 27 27 27 26 26 26 26
25 25 25 25 24 24 24 25 26 26 26 27 26 25 24 25 25 26 26 26 26 27 27 27 28 27 27 28 28 28 28 28 28 28 28 27 28 28 28 28 27 27 27
27 27 27 26 26 26 26 27 28 28 28 28 27 26 26 26 26 26 27 27 27 28 28 28 28 28 28 29 29 29 29 29 29 28 28 28 29 29 29 29 28 28 28
28 28 27 27 28 28 28 29 30 30 30 29 28 27 27 27 27 28 28 28 29 29 29 29 29 29 30 30 30 30 30 30 30 30 30 29 30 30 30 30 29 29 28
29 28 28 28 29 30 31 32 32 31 31 30 30 29 28 28 29 29 29 29 29 30 30 30 30 30 31 31 31 31 31 31 30 30 30 30 30 30 30 30 30 29 29
30 30 30 30 30 31 32 32 32 31 31 31 31 31 30 30 30 30 30 30 30 31 31 31 31 31 31 32 32 31 31 31 31 30 31 30 30 30 30 30 29 28 29
31 32 31 32 32 33 33 32 32 32 32 33 33 33 32 31 31 32 32 32 32 31 31 31 32 32 32 32 32 32 32 32 31 31 32 32 31 31 31 30 30 29 29
32 32 33 34 35 34 34 33 33 33 34 34 35 35 34 34 34 33 33 34 34 33 33 33 33 33 32 31 32 32 32 32 32 32 32 32 32 31 31 31 30 30 30
33 33 33 34 34 35 35 34 34 35 35 36 36 36 35 35 35 35 35 35 34 34 34 33 33 33 32 32 32 32 32 32 33 33 33 33 32 32 32 32 31 31 31
34 34 34 34 34 35 35 36 35 36 36 36 37 37 37 36 37 36 35 35 35 35 35 34 34 33 33 33 33 33 33 33 33 33 33 33 34 33 33 33 32 32 33
34 35 35 35 35 36 37 37 37 38 37 37 37 37 37 37 36 36 36 36 36 36 35 35 34 34 34 34 34 34 34 34 34 34 34 34 34 34 34 33 33 33 33
35 35 36 36 36 36 37 37 38 39 38 37 36 36 36 36 37 37 37 37 36 35 35 35 35 35 36 35 36 36 36 35 35 35 35 35 35 35 34 34 33 33 33
35 35 36 36 36 36 37 37 37 37 36 36 36 35 35 35 35 36 36 36 36 36 36 36 36 37 37 37 37 37 37 37 36 37 36 35 35 36 35 34 34 33 33
35 36 36 35 34 35 36 36 35 34 34 34 35 35 35 34 34 34 35 36 36 36 36 36 37 37 37 38 38 38 38 38 38 37 36 36 36 36 35 34 34 34 34
34 34 34 35 35 35 34 34 33 33 33 33 33 34 34 35 34 34 35 36 37 38 38 37 37 37 38 38 38 39 39 39 38 37 37 36 36 37 35 34 35 35 34
33 33 34 33 33 33 33 33 32 32 32 32 33 34 34 34 34 34 35 36 36 36 36 36 37 37 38 39 38 38 38 38 37 37 37 37 37 36 36 36 36 35 35
30 30 31 31 31 31 32 32 32 32 32 32 33 33 33 33 33 34 34 34 35 35 35 36 36 37 37 37 38 38 38 37 37 37 37 37 37 37 36 36 35 35 35
28 29 29 29 30 30 31 31 32 32 32 32 33 33 33 33 33 33 34 35 35 35 36 37 37 37 37 38 38 37 37 37 36 36 36 36 36 36 36 36 35 35 35
28 28 28 28 28 29 30 30 30 31 31 32 33 34 34 33 34 34 35 36 36 36 36 37 37 37 37 37 36 36 36 36 36 36 36 36 36 36 36 36 36 36 35

GEFSGL_500_meanwind_264.txt.gz
Wind_Speed
8 8 9 9 9 9 10 10 11 11 12 12 13 13 13 14 14 13 14 14 14 14 13 13 13 13 14 15 16 16 16 16 16 17 18 18 17 18 18 17 17 17 17
9 10 11 11 11 11 12 12 12 13 13 14 14 14 14 15 14 13 13 14 14 14 14 14 15 15 15 16 17 17 17 17 17 17 17 18 18 18 18 18 18 18 18
11 11 12 12 13 12 13 14 14 14 14 15 14 14 15 15 15 14 14 15 15 16 16 16 16 17 17 18 18 19 19 18 18 18 18 19 18 18 18 19 19 19 19
11 12 12 14 14 14 14 14 14 15 15 16 16 16 16 16 16 16 16 16 16 16 17 17 18 19 20 20 20 21 21 20 20 20 20 20 20 19 19 20 20 20 20
13 14 14 15 14 15 15 16 16 16 16 17 18 18 18 18 18 18 17 17 17 17 18 19 20 21 22 22 22 21 22 21 21 21 21 21 21 21 21 21 20 20 21
15 15 17 17 17 16 16 18 18 17 18 19 18 18 19 19 20 20 20 19 18 18 19 20 20 21 22 23 23 23 23 23 22 23 23 23 23 22 21 21 21 22 22
16 16 17 18 19 18 19 19 19 18 18 19 19 20 20 20 20 21 20 20 19 19 19 20 21 21 22 23 24 24 24 24 24 25 25 25 24 23 23 23 23 23 23
17 17 18 19 20 21 20 20 21 21 21 21 22 22 22 21 22 22 22 22 21 21 22 22 23 23 24 24 25 25 25 25 25 25 26 26 26 25 25 25 25 25 25
19 19 20 21 22 22 22 22 23 22 22 22 23 23 23 23 23 23 23 23 23 23 23 24 24 25 25 26 26 26 26 25 25 25 26 26 27 27 27 27 27 27 27
21 22 22 23 23 23 23 24 24 24 24 25 25 24 24 25 25 25 25 25 25 25 26 25 25 26 27 27 27 27 27 26 26 26 27 27 28 28 28 28 29 29 28
23 24 24 24 24 24 24 25 25 25 25 25 25 25 25 26 27 27 27 27 27 27 27 27 27 26 27 27 28 28 28 28 27 27 27 28 29 29 29 30 31 31 30
24 25 25 25 25 25 25 25 25 26 26 26 26 26 27 27 28 28 28 28 28 28 28 28 27 28 28 28 29 29 30 30 28 28 28 28 29 30 30 31 31 31 31
26 26 26 26 27 27 26 26 26 26 26 27 27 27 28 28 28 28 28 28 28 28 29 29 29 29 29 28 29 29 29 29 29 30 30 30 30 30 31 31 31 32 31
27 27 27 27 27 28 28 28 28 28 28 28 28 29 29 29 30 30 30 30 30 29 29 29 29 29 29 29 28 29 29 30 30 31 31 31 31 30 31 31 31 32 32
29 28 29 28 28 28 29 30 30 29 29 29 30 29 30 30 30 30 30 30 30 30 30 29 30 29 30 30 30 30 31 31 30 31 31 31 31 31 31 32 32 32 31
29 29 29 29 29 29 30 30 30 30 31 31 31 31 30 31 31 30 30 30 30 31 31 31 30 31 31 32 32 32 32 32 32 32 32 32 32 32 32 32 32 33 33
30 29 29 30 30 30 30 31 31 32 33 32 32 31 31 32 32 31 31 31 31 32 32 32 32 33 33 33 33 34 34 34 33 33 33 33 34 34 34 34 34 34 34
30 30 30 30 31 31 31 32 32 33 33 32 32 32 32 32 32 33 32 32 32 32 32 33 34 34 35 35 35 35 35 35 34 34 34 35 35 35 35 35 35 35 35
29 30 30 31 31 31 32 33 33 33 33 33 33 32 33 33 33 33 33 33 33 33 33 34 35 35 36 36 36 36 36 36 36 35 35 35 36 36 36 36 35 35 35
30 30 31 31 31 32 33 34 34 35 34 34 33 33 33 33 33 33 33 33 34 34 34 35 35 36 36 36 37 37 37 37 36 36 36 36 36 36 35 35 36 36 36
29 29 29 30 31 32 32 33 34 34 34 34 33 33 33 33 33 33 33 33 33 32 33 34 34 35 36 37 37 37 37 38 37 36 36 36 37 37 37 37 36 37 36
29 29 29 30 30 30 31 32 32 32 32 32 32 32 32 33 33 33 33 32 32 32 33 33 34 34 35 35 36 37 37 38 37 37 38 38 39 38 38 37 37 37 36
28 29 29 29 29 29 30 31 31 31 31 32 32 32 32 32 32 32 32 32 32 32 33 34 34 34 35 36 36 37 37 37 37 37 38 38 38 38 38 37 37 36 36
27 27 27 27 28 28 29 29 30 30 30 31 31 32 31 31 31 31 32 31 32 33 33 34 34 35 35 35 36 36 38 38 37 37 37 37 37 37 36 36 36 35 35
25 26 26 27 27 28 28 28 29 29 30 30 30 30 30 31 31 31 31 32 32 33 34 34 35 35 35 35 36 37 38 37 37 37 36 36 36 36 36 35 35 34 34
25 26 26 26 26 26 27 27 28 29 29 29 29 29 30 30 31 31 31 32 34 34 35 35 36 37 37 37 37 38 38 37 36 36 36 36 35 35 35 34 34 34 33

GEFSGL_500_meanwind_270.txt.gz
Wind_Speed
9 10 10 11 12 12 12 12 12 12 12 12 13 13 13 13 14 14 15 15 16 17 17 17 17 17 18 18 17 17 18 18 18 18 19 19 19 20 20 21 21 21 21
11 11 12 13 14 14 14 13 14 14 14 14 14 14 15 15 16 16 17 17 17 18 18 17 17 18 18 19 19 19 19 19 19 20 21 21 21 21 21 22 22 22 23
12 12 13 14 15 15 16 15 15 15 15 15 15 16 17 17 17 17 18 18 18 18 18 18 19 19 20 20 21 21 21 21 21 22 22 22 23 23 23 23 23 23 23
14 14 14 15 16 17 17 16 16 16 16 16 17 18 18 18 18 19 19 19 19 19 20 20 21 21 22 22 22 22 22 22 23 23 23 24 24 24 24 24 24 24 24
15 16 16 17 17 18 18 17 16 16 17 18 18 19 20 20 19 20 20 21 20 21 21 21 21 22 22 23 23 23 24 24 24 25 25 25 26 26 26 25 25 26 26
17 17 18 18 19 19 20 19 18 17 18 19 19 20 21 21 21 22 22 22 22 23 23 23 23 23 23 24 24 25 25 25 25 26 26 26 27 27 27 27 27 27 27
18 19 20 20 21 21 21 21 19 19 19 20 20 21 22 22 22 22 23 23 24 24 24 24 25 25 25 25 25 26 26 26 26 26 26 27 28 28 28 28 28 29 28
20 20 21 22 22 23 23 23 22 21 21 21 21 21 22 23 23 23 25 25 24 24 25 25 25 26 26 26 26 26 27 27 27 27 28 28 29 29 30 29 29 29 30
22 22 22 22 24 24 25 24 22 22 22 21 21 22 23 23 24 25 26 26 25 25 26 25 26 26 27 27 27 27 27 27 27 28 28 29 29 30 30 30 30 30 30
24 24 24 24 25 26 25 24 24 24 24 22 23 23 24 25 26 26 27 27 27 27 27 27 27 27 27 27 27 28 28 28 28 29 29 29 29 29 30 30 30 30 31
26 25 25 26 27 26 26 26 26 26 25 25 25 25 26 27 27 28 28 28 28 28 27 27 28 28 28 28 28 28 28 28 29 29 29 30 30 30 30 30 30 30 31
28 28 27 27 27 27 27 27 27 27 27 27 27 27 28 28 29 29 29 28 28 28 28 28 28 28 29 30 29 29 30 29 29 29 29 30 31 31 31 31 31 32 32
29 29 28 28 28 27 27 28 28 28 28 28 28 28 29 29 30 29 28 27 27 28 28 29 29 30 30 30 30 30 30 30 30 30 30 30 31 31 31 31 32 33 33
28 28 27 28 28 28 29 29 29 28 29 29 30 30 30 31 31 29 29 28 28 28 28 29 30 30 30 31 32 31 31 31 31 31 32 32 32 32 32 32 33 33 33
29 29 29 29 29 29 29 29 30 29 29 30 30 31 31 31 31 32 32 31 30 30 30 30 31 31 32 32 32 32 32 32 32 33 33 33 34 34 33 34 34 34 34
29 29 29 29 29 29 30 30 30 30 31 31 31 31 31 31 31 32 32 32 33 33 33 32 33 33 33 33 32 32 32 33 34 35 35 35 35 35 34 35 35 35 35
28 29 29 29 29 30 30 30 30 31 31 32 33 33 33 32 33 33 34 34 34 34 34 34 34 35 35 34 34 34 34 35 36 37 37 37 37 37 36 36 36 37 37
28 28 28 29 29 30 30 31 31 31 32 33 33 34 34 34 34 34 35 35 35 35 36 36 35 35 35 35 35 35 36 36 37 37 37 38 38 37 37 38 38 38 38
28 28 28 28 29 29 30 30 31 32 32 33 34 35 35 35 35 35 35 35 35 35 36 36 36 36 36 35 35 36 37 37 38 37 38 38 38 38 38 38 38 37 38
28 28 29 28 28 29 29 30 30 31 32 33 34 34 34 34 34 35 35 36 36 36 36 37 37 37 37 36 36 37 38 38 38 38 39 39 39 39 38 37 37 37 37
29 29 29 29 29 29 29 30 30 30 31 32 33 33 33 34 34 34 35 35 35 35 36 37 37 37 38 38 38 38 38 38 38 38 39 39 39 38 38 37 36 36 36
28 29 29 29 30 30 29 29 30 30 31 32 32 32 33 33 33 34 35 35 36 35 35 36 37 37 38 38 38 38 38 38 38 38 39 38 38 38 38 38 38 37 37
27 27 27 28 28 28 28 28 29 29 30 30 31 32 33 33 34 35 35 35 35 35 35 36 36 37 37 38 38 39 39 38 38 38 38 38 38 38 38 38 38 38 37
26 26 26 26 27 27 27 27 28 29 29 29 30 31 32 32 33 34 34 34 34 35 36 36 37 37 38 38 39 39 38 38 39 39 39 39 39 38 38 38 38 37 37
25 26 26 27 27 27 27 28 28 28 28 29 30 31 31 32 33 33 33 34 35 35 36 37 37 37 38 38 39 38 38 39 39 39 39 39 38 39 39 39 38 38 38
25 26 26 26 26 26 27 28 28 28 28 29 30 31 31 32 33 33 34 34 35 36 36 37 37 37 37 37 37 38 38 38 38 38 38 38 38 38 38 38 38 38 38